Roxboro, NC

6:46 AM EDT on July 25, 2017 (GMT -0400)
Person County

Weather History for KTDF - November, 2010

Change the Weather History Date:

Monday, November 22, 2010

  Actual Average Record
Temperature  
Mean Temperature 52 °F -  
Max Temperature 69 °F 57 °F 75 °F (1979)
Min Temperature 35 °F 32 °F 15 °F (1964)
Degree Days  
Heating Degree Days 13    
Growing Degree Days 2 (Base 50)    
Moisture  
Dew Point 44 °F    
Average Humidity 85    
Maximum Humidity 100    
Minimum Humidity 40    
Precipitation  
Precipitation 0.00 in - - ()
Sea Level Pressure  
Sea Level Pressure 30.31 in    
Wind  
Wind Speed 1 mph (SSW)    
Max Wind Speed 15 mph    
Max Gust Speed -    
Visibility 8 miles    
Events      
Averages and records for this station are not official NWS values.
T = Trace of Precipitation, MM = Missing Value Source: NWS Daily Summary

Daily Weather History Graph

Daily Weather History Graph

Search for Another Location

Airport or City:

Trip Planner

Search our weather history database for the weather conditions in past years. The results will help you decide how hot, cold, wet, or windy it might be!

Date:

Astronomy

Nov. 22, 2010 Rise Set
Actual Time 7:00 AM EST 5:03 PM EST
Civil Twilight 6:32 AM EST 5:31 PM EST
Nautical Twilight 6:00 AM EST 6:03 PM EST
Astronomical Twilight 5:30 AM EST 6:33 PM EST
Moon 5:47 PM EST (11/22) 7:57 AM EST (11/22)
Length of Visible Light 10h 59m
Length of Day
10h 03m
Full, 99% of the Moon is Illuminated
Nov 22
Full
Nov 28
Last Quarter
Dec 5
New
Dec 13
First Quarter
Dec 21
Full

Hourly Weather History & Observations

Time (EST) Temp. Dew Point Humidity Pressure Visibility Wind Dir Wind Speed Gust Speed Precip Events Conditions
12:26 AM 37.4 °F 37.4 °F 100% 30.35 in 3.0 mi Calm Calm - N/A   Clear
1:26 AM 37.4 °F 37.4 °F 100% 30.34 in 1.8 mi Calm Calm - N/A   Unknown
5:04 AM 37.4 °F 37.4 °F 100% 30.37 in 4.0 mi Calm Calm - N/A   Clear
5:24 AM 35.6 °F 35.6 °F 100% 30.37 in 3.0 mi Calm Calm - N/A   Scattered Clouds
6:04 AM 37.4 °F 37.4 °F 100% 30.38 in 7.0 mi Calm Calm - N/A   Overcast
6:24 AM 37.4 °F 37.4 °F 100% 30.38 in 7.0 mi Calm Calm - N/A   Overcast
7:45 AM 41.0 °F 41.0 °F 100% 30.39 in 5.0 mi Calm Calm - N/A   Overcast
8:04 AM 42.8 °F 42.8 °F 100% 30.40 in 5.0 mi Calm Calm - N/A   Overcast
8:24 AM 44.6 °F 44.6 °F 100% 30.40 in 5.0 mi Calm Calm - N/A   Overcast
9:04 AM 46.4 °F 46.4 °F 100% 30.40 in 7.0 mi Calm Calm - N/A   Overcast
10:24 AM 53.6 °F 53.6 °F 100% 30.39 in 10.0 mi Calm Calm - N/A   Overcast
10:46 AM 57.2 °F 55.4 °F 94% 30.38 in 10.0 mi Calm Calm - N/A   Overcast
12:44 PM 66.2 °F 51.8 °F 60% 30.31 in 10.0 mi Calm Calm - N/A   Clear
3:06 PM 69.8 °F 44.6 °F 40% 30.26 in 10.0 mi SSW 15.0 mph - N/A   Clear
3:24 PM 69.8 °F 44.6 °F 40% 30.26 in 10.0 mi SW 11.5 mph - N/A   Clear
4:24 PM 66.2 °F 44.6 °F 46% 30.25 in 10.0 mi SSW 6.9 mph - N/A   Clear
6:25 PM 57.2 °F 42.8 °F 59% 30.24 in 10.0 mi South 3.5 mph - N/A   Clear
8:24 PM 48.2 °F 42.8 °F 82% 30.24 in 10.0 mi Calm Calm - N/A   Clear
8:44 PM 46.4 °F 42.8 °F 87% 30.23 in 10.0 mi Calm Calm - N/A   Clear
9:04 PM 48.2 °F 44.6 °F 87% 30.23 in 10.0 mi Calm Calm - N/A   Clear
9:24 PM 48.2 °F 44.6 °F 87% 30.23 in 10.0 mi Calm Calm - N/A   Clear
9:45 PM 48.2 °F 44.6 °F 87% 30.22 in 10.0 mi Calm Calm - N/A   Clear
11:44 PM 48.2 °F 46.4 °F 93% 30.20 in 10.0 mi Calm Calm - N/A   Scattered Clouds